{"data":{"norad_id":64414,"epoch":"2026-05-25T00:07:59.528640Z","epoch_age_seconds":71216,"freshness":"FRESH","line1":"1 64414U 25129C   26145.00555010  .00001835  00000+0  16154-3 0  9998","line2":"2 64414  70.0006 242.2318 0003462 269.5790  90.4973 14.98332855 52714","mean_motion":14.98332855,"eccentricity":0.0003462,"inclination_deg":70.0006,"raan_deg":242.2318,"arg_perigee_deg":269.579,"mean_anomaly_deg":90.4973,"bstar":0.00016154,"rev_number":5271,"period_min":96.106815998505,"perigee_km":569.64090838415,"apogee_km":574.45321582875,"semimajor_km":6950.1840621064,"source":"CELESTRAK","updated_at":"2026-05-25T13:38:20.416970Z"}}